Time,TemperatureF,DewpointF,PressureIn,WindDirection,WindDirectionDegrees,WindSpeedMPH,WindSpeedGustMPH,Humidity,HourlyPrecipIn,Conditions,Clouds,dailyrainin,SoftwareType,DateUTC
2013-02-23 00:00:00,31.0,25.6,30.26,ESE,105,0.0,5.0,80,0.00,,,0.00,Wunderground v.1.15,2013-02-23 05:00:00,
2013-02-23 00:10:00,31.0,26.7,30.26,ESE,105,0.0,5.0,84,0.00,,,0.00,Wunderground v.1.15,2013-02-23 05:10:00,
2013-02-23 00:20:00,30.7,26.1,30.25,ESE,105,0.0,5.0,83,0.00,,,0.00,Wunderground v.1.15,2013-02-23 05:20:00,
2013-02-23 00:29:00,30.6,25.8,30.25,ESE,105,0.0,5.0,82,0.00,,,0.00,Wunderground v.1.15,2013-02-23 05:29:00,
2013-02-23 00:39:00,30.6,25.8,30.25,ESE,105,0.0,5.0,82,0.00,,,0.00,Wunderground v.1.15,2013-02-23 05:39:00,
2013-02-23 00:50:00,30.6,26.1,30.25,ESE,105,0.0,5.0,83,0.00,,,0.00,Wunderground v.1.15,2013-02-23 05:50:00,
2013-02-23 01:00:00,30.7,26.7,30.24,ESE,105,0.0,5.0,85,0.00,,,0.00,Wunderground v.1.15,2013-02-23 06:00:00,
2013-02-23 01:09:00,30.9,26.3,30.24,ESE,105,0.0,5.0,83,0.00,,,0.00,Wunderground v.1.15,2013-02-23 06:09:00,
2013-02-23 01:20:00,30.7,26.1,30.24,SE,131,0.0,5.0,83,0.00,,,0.00,Wunderground v.1.15,2013-02-23 06:20:00,
2013-02-23 01:30:00,30.6,26.3,30.24,SE,131,0.0,5.0,84,0.00,,,0.00,Wunderground v.1.15,2013-02-23 06:30:00,
2013-02-23 01:40:00,30.6,26.1,30.24,SE,131,0.0,5.0,83,0.00,,,0.00,Wunderground v.1.15,2013-02-23 06:40:00,
2013-02-23 01:50:00,30.9,25.2,30.24,ESE,112,1.0,5.0,79,0.00,,,0.00,Wunderground v.1.15,2013-02-23 06:50:00,
2013-02-23 02:00:00,32.4,23.0,30.23,SE,131,4.0,4.0,68,0.00,,,0.00,Wunderground v.1.15,2013-02-23 07:00:00,
2013-02-23 02:10:00,33.5,22.6,30.23,East,91,4.0,4.0,64,0.00,,,0.00,Wunderground v.1.15,2013-02-23 07:10:00,
2013-02-23 02:19:00,33.8,22.9,30.23,ESE,115,4.0,4.0,64,0.00,,,0.00,Wunderground v.1.15,2013-02-23 07:19:00,
2013-02-23 02:29:00,33.8,22.9,30.22,SE,142,4.0,5.0,64,0.00,,,0.00,Wunderground v.1.15,2013-02-23 07:29:00,
2013-02-23 02:40:00,33.5,23.0,30.22,ESE,117,4.0,5.0,65,0.00,,,0.00,Wunderground v.1.15,2013-02-23 07:40:00,
2013-02-23 02:50:00,34.0,23.5,30.21,ESE,121,6.0,7.0,65,0.00,,,0.00,Wunderground v.1.15,2013-02-23 07:50:00,
2013-02-23 02:59:00,34.0,23.8,30.21,SE,136,5.0,5.0,66,0.00,,,0.00,Wunderground v.1.15,2013-02-23 07:59:00,
2013-02-23 03:09:00,33.8,24.4,30.21,ESE,115,3.0,5.0,68,0.00,,,0.00,Wunderground v.1.15,2013-02-23 08:09:00,
2013-02-23 03:19:00,34.0,24.9,30.20,SE,126,4.0,5.0,69,0.00,,,0.00,Wunderground v.1.15,2013-02-23 08:19:00,
2013-02-23 03:30:00,34.1,25.0,30.20,SSE,164,4.0,7.0,69,0.00,,,0.00,Wunderground v.1.15,2013-02-23 08:30:00,
2013-02-23 03:40:00,34.4,25.3,30.20,ESE,121,6.0,6.0,69,0.00,,,0.00,Wunderground v.1.15,2013-02-23 08:40:00,
2013-02-23 03:50:00,34.1,25.7,30.19,ESE,115,5.0,7.0,71,0.00,,,0.00,Wunderground v.1.15,2013-02-23 08:50:00,
2013-02-23 04:00:00,34.4,25.6,30.19,East,93,5.0,5.0,70,0.00,,,0.00,Wunderground v.1.15,2013-02-23 09:00:00,
2013-02-23 04:10:00,34.3,26.5,30.19,East,94,5.0,5.0,73,0.00,,,0.00,Wunderground v.1.15,2013-02-23 09:10:00,
2013-02-23 04:20:00,34.6,26.2,30.18,ESE,121,5.0,11.0,71,0.00,,,0.00,Wunderground v.1.15,2013-02-23 09:20:00,
2013-02-23 04:29:00,34.7,26.3,30.18,ESE,121,5.0,5.0,71,0.00,,,0.00,Wunderground v.1.15,2013-02-23 09:29:00,
2013-02-23 04:40:00,34.7,26.6,30.18,East,99,4.0,5.0,72,0.00,,,0.00,Wunderground v.1.15,2013-02-23 09:40:00,
2013-02-23 04:50:00,34.4,26.0,30.18,East,97,4.0,4.0,71,0.00,,,0.00,Wunderground v.1.15,2013-02-23 09:50:00,
2013-02-23 05:00:00,33.7,26.0,30.18,ESE,121,4.0,4.0,73,0.00,,,0.00,Wunderground v.1.15,2013-02-23 10:00:00,
2013-02-23 05:10:00,33.5,25.8,30.18,ESE,112,4.0,4.0,73,0.00,,,0.00,Wunderground v.1.15,2013-02-23 10:10:00,
2013-02-23 05:20:00,33.5,25.8,30.17,ESE,110,4.0,4.0,73,0.00,,,0.00,Wunderground v.1.15,2013-02-23 10:20:00,
2013-02-23 05:30:00,33.2,26.1,30.17,ENE,69,3.0,6.0,75,0.00,,,0.00,Wunderground v.1.15,2013-02-23 10:30:00,
2013-02-23 05:40:00,33.2,26.1,30.17,ENE,71,4.0,4.0,75,0.00,,,0.00,Wunderground v.1.15,2013-02-23 10:40:00,
2013-02-23 05:50:00,33.4,26.3,30.17,ESE,113,4.0,5.0,75,0.00,,,0.00,Wunderground v.1.15,2013-02-23 10:50:00,
2013-02-23 06:00:00,33.5,26.1,30.17,NE,44,4.0,4.0,74,0.00,,,0.00,Wunderground v.1.15,2013-02-23 11:00:00,
2013-02-23 06:10:00,33.4,26.0,30.17,East,91,3.0,3.0,74,0.00,,,0.00,Wunderground v.1.15,2013-02-23 11:10:00,
2013-02-23 06:19:00,33.2,25.8,30.16,ESE,102,4.0,4.0,74,0.00,,,0.00,Wunderground v.1.15,2013-02-23 11:19:00,
2013-02-23 06:30:00,33.1,26.0,30.16,East,79,3.0,3.0,75,0.00,,,0.00,Wunderground v.1.15,2013-02-23 11:30:00,
2013-02-23 06:40:00,33.1,25.7,30.16,NNW,330,4.0,6.0,74,0.00,,,0.00,Wunderground v.1.15,2013-02-23 11:40:00,
2013-02-23 06:50:00,33.4,26.0,30.15,ESE,114,4.0,4.0,74,0.00,,,0.00,Wunderground v.1.15,2013-02-23 11:50:00,
2013-02-23 07:00:00,33.2,25.5,30.15,East,93,4.0,5.0,73,0.00,,,0.00,Wunderground v.1.15,2013-02-23 12:00:00,
2013-02-23 07:09:00,33.4,25.7,30.15,East,87,4.0,4.0,73,0.00,,,0.00,Wunderground v.1.15,2013-02-23 12:09:00,
2013-02-23 07:20:00,33.4,26.0,30.15,ENE,72,3.0,5.0,74,0.00,,,0.00,Wunderground v.1.15,2013-02-23 12:20:00,
2013-02-23 07:30:00,33.5,25.8,30.15,NE,52,3.0,5.0,73,0.00,,,0.00,Wunderground v.1.15,2013-02-23 12:30:00,
2013-02-23 07:40:00,33.5,25.8,30.15,ENE,71,4.0,5.0,73,0.00,,,0.00,Wunderground v.1.15,2013-02-23 12:40:00,
2013-02-23 07:50:00,33.7,26.0,30.15,ESE,109,4.0,7.0,73,0.00,,,0.00,Wunderground v.1.15,2013-02-23 12:50:00,
2013-02-23 08:00:00,33.8,26.1,30.15,ESE,109,3.0,5.0,73,0.00,,,0.00,Wunderground v.1.15,2013-02-23 13:00:00,
2013-02-23 08:10:00,33.7,26.0,30.15,ENE,60,3.0,3.0,73,0.00,,,0.00,Wunderground v.1.15,2013-02-23 13:10:00,
2013-02-23 08:20:00,33.7,26.0,30.15,ESE,102,4.0,5.0,73,0.00,,,0.00,Wunderground v.1.15,2013-02-23 13:20:00,
2013-02-23 08:30:00,33.8,26.4,30.15,SE,139,4.0,6.0,74,0.00,,,0.00,Wunderground v.1.15,2013-02-23 13:30:00,
2013-02-23 08:40:00,34.1,26.0,30.15,ENE,62,4.0,5.0,72,0.00,,,0.00,Wunderground v.1.15,2013-02-23 13:40:00,
2013-02-23 08:50:00,34.1,26.0,30.14,East,95,5.0,5.0,72,0.00,,,0.00,Wunderground v.1.15,2013-02-23 13:50:00,
2013-02-23 09:00:00,34.3,26.2,30.13,NE,54,5.0,8.0,72,0.00,,,0.00,Wunderground v.1.15,2013-02-23 14:00:00,
2013-02-23 09:10:00,34.3,25.9,30.13,ESE,105,5.0,5.0,71,0.00,,,0.00,Wunderground v.1.15,2013-02-23 14:10:00,
2013-02-23 09:20:00,34.6,26.5,30.13,NE,52,4.0,4.0,72,0.00,,,0.00,Wunderground v.1.15,2013-02-23 14:20:00,
2013-02-23 09:30:00,34.6,26.2,30.12,NE,48,4.0,4.0,71,0.00,,,0.00,Wunderground v.1.15,2013-02-23 14:30:00,
2013-02-23 09:39:00,34.9,26.4,30.12,East,97,3.0,5.0,71,0.00,,,0.00,Wunderground v.1.15,2013-02-23 14:39:00,
2013-02-23 09:49:00,34.7,26.6,30.12,East,97,3.0,3.0,72,0.00,,,0.00,Wunderground v.1.15,2013-02-23 14:49:00,
2013-02-23 10:00:00,34.9,26.8,30.12,ENE,67,3.0,10.0,72,0.00,,,0.00,Wunderground v.1.15,2013-02-23 15:00:00,
2013-02-23 10:10:00,35.0,26.9,30.12,NE,54,4.0,4.0,72,0.00,,,0.00,Wunderground v.1.15,2013-02-23 15:10:00,
2013-02-23 10:20:00,34.9,27.1,30.11,East,91,3.0,3.0,73,0.00,,,0.00,Wunderground v.1.15,2013-02-23 15:20:00,
2013-02-23 10:29:00,34.9,27.5,30.11,ESE,121,3.0,5.0,74,0.00,,,0.00,Wunderground v.1.15,2013-02-23 15:29:00,
2013-02-23 10:40:00,34.7,27.3,30.11,North,354,4.0,4.0,74,0.00,,,0.00,Wunderground v.1.15,2013-02-23 15:40:00,
2013-02-23 10:50:00,34.6,27.2,30.09,ENE,64,4.0,5.0,74,0.00,,,0.00,Wunderground v.1.15,2013-02-23 15:50:00,
2013-02-23 11:00:00,34.4,27.3,30.08,ESE,103,4.0,4.0,75,0.00,,,0.00,Wunderground v.1.15,2013-02-23 16:00:00,
2013-02-23 11:10:00,34.6,27.8,30.08,ESE,121,4.0,4.0,76,0.00,,,0.00,Wunderground v.1.15,2013-02-23 16:10:00,
2013-02-23 11:20:00,34.7,27.6,30.07,NE,47,4.0,5.0,75,0.00,,,0.00,Wunderground v.1.15,2013-02-23 16:20:00,
2013-02-23 11:30:00,35.0,27.5,30.07,ENE,70,4.0,5.0,74,0.00,,,0.00,Wunderground v.1.15,2013-02-23 16:30:00,
2013-02-23 11:40:00,35.2,28.1,30.07,ESE,103,4.0,5.0,75,0.00,,,0.00,Wunderground v.1.15,2013-02-23 16:40:00,
2013-02-23 11:49:00,35.3,27.8,30.06,ENE,75,3.0,8.0,74,0.00,,,0.00,Wunderground v.1.15,2013-02-23 16:49:00,
2013-02-23 12:00:00,35.3,28.5,30.05,NE,54,3.0,5.0,76,0.00,,,0.00,Wunderground v.1.15,2013-02-23 17:00:00,
2013-02-23 12:10:00,35.0,28.5,30.05,SE,126,3.0,5.0,77,0.00,,,0.00,Wunderground v.1.15,2013-02-23 17:10:00,
2013-02-23 12:20:00,35.0,28.8,30.06,East,95,1.0,1.0,78,0.00,,,0.00,Wunderground v.1.15,2013-02-23 17:20:00,
2013-02-23 12:29:00,35.2,28.7,30.05,East,91,1.0,5.0,77,0.00,,,0.00,Wunderground v.1.15,2013-02-23 17:29:00,
2013-02-23 12:40:00,35.3,28.5,30.05,ESE,113,1.0,5.0,76,0.00,,,0.00,Wunderground v.1.15,2013-02-23 17:40:00,
2013-02-23 12:50:00,35.5,28.7,30.05,ESE,117,1.0,1.0,76,0.00,,,0.01,Wunderground v.1.15,2013-02-23 17:50:00,
2013-02-23 13:00:00,35.3,29.1,30.05,SE,126,2.0,5.0,78,0.00,,,0.01,Wunderground v.1.15,2013-02-23 18:00:00,
2013-02-23 13:10:00,34.9,29.4,30.05,SSE,148,3.0,5.0,80,0.00,,,0.01,Wunderground v.1.15,2013-02-23 18:10:00,
2013-02-23 13:20:00,35.0,29.1,30.05,ESE,121,4.0,4.0,79,0.00,,,0.01,Wunderground v.1.15,2013-02-23 18:20:00,
2013-02-23 13:30:00,35.0,29.1,30.03,ESE,121,4.0,5.0,79,0.00,,,0.01,Wunderground v.1.15,2013-02-23 18:30:00,
2013-02-23 13:40:00,35.2,29.3,30.03,SE,131,4.0,4.0,79,0.00,,,0.01,Wunderground v.1.15,2013-02-23 18:40:00,
2013-02-23 13:50:00,34.4,30.6,30.03,SSE,156,2.0,2.0,86,0.00,,,0.01,Wunderground v.1.15,2013-02-23 18:50:00,
2013-02-23 14:00:00,34.1,30.9,30.03,SSE,156,1.0,1.0,88,0.00,,,0.01,Wunderground v.1.15,2013-02-23 19:00:00,
2013-02-23 14:09:00,33.8,30.9,30.03,ESE,104,1.0,5.0,89,0.00,,,0.01,Wunderground v.1.15,2013-02-23 19:09:00,
2013-02-23 14:19:00,33.7,30.8,30.02,East,85,2.0,2.0,89,0.00,,,0.01,Wunderground v.1.15,2013-02-23 19:19:00,
2013-02-23 14:30:00,33.7,30.8,30.03,East,92,2.0,2.0,89,0.00,,,0.01,Wunderground v.1.15,2013-02-23 19:30:00,
2013-02-23 14:40:00,33.7,30.8,30.03,ENE,75,1.0,5.0,89,0.00,,,0.01,Wunderground v.1.15,2013-02-23 19:40:00,
2013-02-23 14:50:00,33.8,30.6,30.02,East,95,2.0,2.0,88,0.00,,,0.01,Wunderground v.1.15,2013-02-23 19:50:00,
2013-02-23 15:00:00,34.0,30.8,30.02,SE,131,1.0,1.0,88,0.00,,,0.01,Wunderground v.1.15,2013-02-23 20:00:00,
2013-02-23 15:10:00,34.1,30.6,30.02,ESE,112,4.0,7.0,87,0.00,,,0.01,Wunderground v.1.15,2013-02-23 20:10:00,
2013-02-23 15:20:00,34.3,30.3,30.01,SE,144,5.0,5.0,85,0.00,,,0.01,Wunderground v.1.15,2013-02-23 20:20:00,
2013-02-23 15:30:00,34.1,30.4,30.00,ENE,69,5.0,6.0,86,0.00,,,0.01,Wunderground v.1.15,2013-02-23 20:30:00,
2013-02-23 15:39:00,34.1,30.4,30.00,SE,135,4.0,6.0,86,0.00,,,0.01,Wunderground v.1.15,2013-02-23 20:39:00,
2013-02-23 15:50:00,34.1,30.1,30.00,ESE,112,3.0,5.0,85,0.00,,,0.01,Wunderground v.1.15,2013-02-23 20:50:00,
2013-02-23 16:00:00,34.1,30.4,30.00,SSE,150,4.0,4.0,86,0.00,,,0.01,Wunderground v.1.15,2013-02-23 21:00:00,
2013-02-23 16:09:00,34.1,29.8,30.00,SE,138,3.0,3.0,84,0.00,,,0.01,Wunderground v.1.15,2013-02-23 21:09:00,
2013-02-23 16:20:00,34.3,29.4,30.00,SE,136,4.0,5.0,82,0.00,,,0.01,Wunderground v.1.15,2013-02-23 21:20:00,
2013-02-23 16:30:00,34.1,29.5,29.99,ENE,70,4.0,4.0,83,0.00,,,0.01,Wunderground v.1.15,2013-02-23 21:30:00,
2013-02-23 16:40:00,34.1,29.5,29.99,ESE,114,4.0,4.0,83,0.00,,,0.01,Wunderground v.1.15,2013-02-23 21:40:00,
2013-02-23 16:50:00,34.1,29.5,29.99,SE,126,5.0,5.0,83,0.00,,,0.01,Wunderground v.1.15,2013-02-23 21:50:00,
2013-02-23 16:59:00,34.1,29.5,29.98,East,100,4.0,6.0,83,0.00,,,0.01,Wunderground v.1.15,2013-02-23 21:59:00,
2013-02-23 17:09:00,34.3,29.1,29.98,ESE,121,6.0,7.0,81,0.00,,,0.02,Wunderground v.1.15,2013-02-23 22:09:00,
2013-02-23 17:20:00,34.4,28.9,29.97,ESE,104,7.0,12.0,80,0.00,,,0.02,Wunderground v.1.15,2013-02-23 22:20:00,
2013-02-23 17:30:00,34.6,28.8,29.97,East,95,8.0,8.0,79,0.00,,,0.02,Wunderground v.1.15,2013-02-23 22:30:00,
2013-02-23 17:40:00,34.6,28.8,29.97,SE,137,7.0,8.0,79,0.00,,,0.02,Wunderground v.1.15,2013-02-23 22:40:00,
2013-02-23 17:50:00,34.6,29.1,29.97,SE,144,7.0,7.0,80,0.00,,,0.02,Wunderground v.1.15,2013-02-23 22:50:00,
2013-02-23 18:00:00,34.1,29.2,29.97,ESE,121,6.0,7.0,82,0.00,,,0.02,Wunderground v.1.15,2013-02-23 23:00:00,
2013-02-23 18:10:00,33.8,29.5,29.97,NE,54,6.0,6.0,84,0.00,,,0.02,Wunderground v.1.15,2013-02-23 23:10:00,
2013-02-23 18:20:00,33.7,29.4,29.97,SSE,149,5.0,5.0,84,0.00,,,0.02,Wunderground v.1.15,2013-02-23 23:20:00,
2013-02-23 18:29:00,34.0,29.1,29.96,East,79,7.0,9.0,82,0.00,,,0.02,Wunderground v.1.15,2013-02-23 23:29:00,
2013-02-23 18:40:00,34.4,28.9,29.96,SE,126,7.0,7.0,80,0.00,,,0.02,Wunderground v.1.15,2013-02-23 23:40:00,
2013-02-23 18:50:00,34.7,28.9,29.95,East,79,8.0,10.0,79,0.00,,,0.03,Wunderground v.1.15,2013-02-23 23:50:00,
2013-02-23 18:59:00,34.7,28.9,29.95,ESE,109,9.0,9.0,79,0.00,,,0.03,Wunderground v.1.15,2013-02-23 23:59:00,
2013-02-23 19:10:00,33.8,29.8,29.95,East,101,7.0,7.0,85,0.00,,,0.03,Wunderground v.1.15,2013-02-24 00:10:00,
2013-02-23 19:20:00,34.4,29.2,29.94,East,86,8.0,8.0,81,0.00,,,0.03,Wunderground v.1.15,2013-02-24 00:20:00,
2013-02-23 19:30:00,35.0,29.1,29.95,East,85,8.0,8.0,79,0.00,,,0.03,Wunderground v.1.15,2013-02-24 00:30:00,
2013-02-23 19:39:00,35.2,29.0,29.95,SE,131,7.0,7.0,78,0.00,,,0.03,Wunderground v.1.15,2013-02-24 00:39:00,
2013-02-23 19:50:00,35.0,29.1,29.95,East,93,4.0,8.0,79,0.00,,,0.03,Wunderground v.1.15,2013-02-24 00:50:00,
2013-02-23 20:00:00,34.9,29.0,29.95,SE,126,4.0,6.0,79,0.00,,,0.03,Wunderground v.1.15,2013-02-24 01:00:00,
2013-02-23 20:10:00,34.9,29.0,29.95,SSW,200,3.0,3.0,79,0.00,,,0.03,Wunderground v.1.15,2013-02-24 01:10:00,
2013-02-23 20:19:00,34.6,30.0,29.95,SSE,148,3.0,5.0,83,0.00,,,0.03,Wunderground v.1.15,2013-02-24 01:19:00,
2013-02-23 20:30:00,33.7,30.2,29.95,ENE,73,2.0,5.0,87,0.00,,,0.03,Wunderground v.1.15,2013-02-24 01:30:00,
2013-02-23 20:40:00,33.4,30.5,29.95,South,175,1.0,5.0,89,0.00,,,0.03,Wunderground v.1.15,2013-02-24 01:40:00,
2013-02-23 20:50:00,34.0,30.3,29.94,SSE,150,2.0,5.0,86,0.00,,,0.03,Wunderground v.1.15,2013-02-24 01:50:00,
2013-02-23 21:00:00,34.3,30.3,29.94,SE,131,2.0,5.0,85,0.00,,,0.03,Wunderground v.1.15,2013-02-24 02:00:00,
2013-02-23 21:09:00,34.4,30.1,29.94,SSE,158,4.0,4.0,84,0.00,,,0.03,Wunderground v.1.15,2013-02-24 02:09:00,
2013-02-23 21:20:00,33.7,30.8,29.94,SE,137,3.0,3.0,89,0.00,,,0.03,Wunderground v.1.15,2013-02-24 02:20:00,
2013-02-23 21:30:00,32.9,30.8,29.94,South,170,1.0,1.0,92,0.00,,,0.03,Wunderground v.1.15,2013-02-24 02:30:00,
2013-02-23 21:39:00,32.8,31.0,29.94,South,170,0.0,5.0,93,0.00,,,0.03,Wunderground v.1.15,2013-02-24 02:39:00,
2013-02-23 21:50:00,32.7,31.2,29.93,South,170,0.0,5.0,94,0.00,,,0.03,Wunderground v.1.15,2013-02-24 02:50:00,
2013-02-23 21:59:00,32.7,31.2,29.92,South,181,0.0,5.0,94,0.00,,,0.03,Wunderground v.1.15,2013-02-24 02:59:00,
2013-02-23 22:10:00,32.9,31.4,29.92,SE,126,0.0,5.0,94,0.00,,,0.03,Wunderground v.1.15,2013-02-24 03:10:00,
2013-02-23 22:20:00,32.7,31.2,29.92,SE,126,0.0,5.0,94,0.00,,,0.03,Wunderground v.1.15,2013-02-24 03:20:00,
2013-02-23 22:30:00,32.8,31.5,29.91,SE,126,0.0,5.0,95,0.00,,,0.03,Wunderground v.1.15,2013-02-24 03:30:00,
2013-02-23 22:39:00,32.7,31.4,29.91,SE,126,0.0,5.0,95,0.00,,,0.03,Wunderground v.1.15,2013-02-24 03:39:00,
2013-02-23 22:50:00,32.5,31.5,29.91,SE,126,0.0,5.0,96,0.00,,,0.03,Wunderground v.1.15,2013-02-24 03:50:00,
2013-02-23 23:00:00,32.4,31.4,29.91,SE,126,0.0,5.0,96,0.00,,,0.03,Wunderground v.1.15,2013-02-24 04:00:00,
2013-02-23 23:10:00,32.2,31.4,29.91,SE,126,0.0,5.0,97,0.00,,,0.03,Wunderground v.1.15,2013-02-24 04:10:00,
2013-02-23 23:20:00,32.2,31.4,29.91,SE,126,0.0,5.0,97,0.00,,,0.03,Wunderground v.1.15,2013-02-24 04:20:00,
2013-02-23 23:29:00,32.2,31.4,29.90,SE,126,0.0,5.0,97,0.00,,,0.03,Wunderground v.1.15,2013-02-24 04:29:00,
2013-02-23 23:39:00,32.2,31.4,29.90,SE,126,0.0,5.0,97,0.00,,,0.03,Wunderground v.1.15,2013-02-24 04:39:00,
2013-02-23 23:49:00,32.2,31.4,29.90,SE,126,0.0,5.0,97,0.00,,,0.03,Wunderground v.1.15,2013-02-24 04:49:00,
2013-02-23 23:59:00,32.2,31.7,29.90,SE,126,0.0,5.0,98,0.00,,,0.00,Wunderground v.1.15,2013-02-24 04:59:00,